STARLINK-35156

Last updated on Tue Oct 14 2025 00:02:05 GMT+0000 (Coordinated Universal Time)

1 65607U 25207R 25286.56769772 -.01772037 00000+0 -40983-1 0 9995 2 65607 97.6022 350.0768 0023522 215.2794 144.6898 15.45489652 5896
UTC large
Height (km)
Speed (km/s)
/
Latitude / Longitude
Inclination (degrees)
Orbital Period (minutes)
Azimuth
Elevation
Range (km)
Doppler Factor

Next 0 passes for location: London (51.5072 / 0.1276)

Sorry there are no passes over London.
STARLINK-35156